Year,Month,Day,Hour,Minute,Value (Times are PST for temperature in C)
2017,05,27,00,00,14.40
2017,05,27,00,01,14.40
2017,05,27,00,02,14.40
2017,05,27,00,03,14.40
2017,05,27,00,04,14.40
2017,05,27,00,05,14.40
2017,05,27,00,06,14.50
2017,05,27,00,07,14.40
2017,05,27,00,08,14.40
2017,05,27,00,09,14.40
2017,05,27,00,10,14.40
2017,05,27,00,11,14.40
2017,05,27,00,12,14.40
2017,05,27,00,13,14.40
2017,05,27,00,14,14.40
2017,05,27,00,15,14.40
2017,05,27,00,16,14.30
2017,05,27,00,17,14.30
2017,05,27,00,18,14.30
2017,05,27,00,19,14.30
2017,05,27,00,20,14.30
2017,05,27,00,21,14.30
2017,05,27,00,22,14.30
2017,05,27,00,23,14.30
2017,05,27,00,24,14.30
2017,05,27,00,25,14.30
2017,05,27,00,26,14.30
2017,05,27,00,27,14.30
2017,05,27,00,28,14.30
2017,05,27,00,29,14.30
2017,05,27,00,30,14.30
2017,05,27,00,31,14.40
2017,05,27,00,32,14.50
2017,05,27,00,33,14.50
2017,05,27,00,34,14.60
2017,05,27,00,35,14.60
2017,05,27,00,36,14.60
2017,05,27,00,37,14.60
2017,05,27,00,38,14.60
2017,05,27,00,39,14.60
2017,05,27,00,40,14.60
2017,05,27,00,41,14.60
2017,05,27,00,42,14.60
2017,05,27,00,43,14.60
2017,05,27,00,44,14.60
2017,05,27,00,45,14.60
2017,05,27,00,46,14.60
2017,05,27,00,47,14.70
2017,05,27,00,48,14.70
2017,05,27,00,49,14.70
2017,05,27,00,50,14.70
2017,05,27,00,51,14.70
2017,05,27,00,52,14.70
2017,05,27,00,53,14.70
2017,05,27,00,54,14.70
2017,05,27,00,55,14.70
2017,05,27,00,56,14.70
2017,05,27,00,57,14.70
2017,05,27,00,58,14.60
2017,05,27,00,59,14.60
2017,05,27,01,00,14.60
2017,05,27,01,01,14.60
2017,05,27,01,02,14.60
2017,05,27,01,03,14.60
2017,05,27,01,04,14.60
2017,05,27,01,05,14.50
2017,05,27,01,06,14.50
2017,05,27,01,07,14.50
2017,05,27,01,08,14.50
2017,05,27,01,09,14.50
2017,05,27,01,10,14.40
2017,05,27,01,11,14.40
2017,05,27,01,12,14.40
2017,05,27,01,13,14.40
2017,05,27,01,14,14.40
2017,05,27,01,15,14.40
2017,05,27,01,16,14.40
2017,05,27,01,17,14.40
2017,05,27,01,18,14.30
2017,05,27,01,19,14.30
2017,05,27,01,20,14.30
2017,05,27,01,21,14.20
2017,05,27,01,22,14.20
2017,05,27,01,23,14.20
2017,05,27,01,24,14.10
2017,05,27,01,25,14.10
2017,05,27,01,26,14.00
2017,05,27,01,27,13.90
2017,05,27,01,28,13.90
2017,05,27,01,29,13.80
2017,05,27,01,30,13.80
2017,05,27,01,31,13.70
2017,05,27,01,32,13.70
2017,05,27,01,33,13.70
2017,05,27,01,34,13.60
2017,05,27,01,35,13.50
2017,05,27,01,36,13.40
2017,05,27,01,37,13.30
2017,05,27,01,38,13.30
2017,05,27,01,39,13.30
2017,05,27,01,40,13.30
2017,05,27,01,41,13.30
2017,05,27,01,42,13.30
2017,05,27,01,43,13.30
2017,05,27,01,44,13.30
2017,05,27,01,45,13.30
2017,05,27,01,46,13.30
2017,05,27,01,47,13.30
2017,05,27,01,48,13.30
2017,05,27,01,49,13.30
2017,05,27,01,50,13.30
2017,05,27,01,51,13.30
2017,05,27,01,52,13.30
2017,05,27,01,53,13.30
2017,05,27,01,54,13.30
2017,05,27,01,55,13.30
2017,05,27,01,56,13.30
2017,05,27,01,57,13.20
2017,05,27,01,58,13.20
2017,05,27,01,59,13.20
2017,05,27,02,00,13.20
2017,05,27,02,01,13.20
2017,05,27,02,02,13.20
2017,05,27,02,03,13.20
2017,05,27,02,04,13.20
2017,05,27,02,05,13.20
2017,05,27,02,06,13.20
2017,05,27,02,07,13.20
2017,05,27,02,08,13.20
2017,05,27,02,09,13.20
2017,05,27,02,10,13.20
2017,05,27,02,11,13.20
2017,05,27,02,12,13.10
2017,05,27,02,13,13.10
2017,05,27,02,14,13.10
2017,05,27,02,15,13.10
2017,05,27,02,16,13.10
2017,05,27,02,17,13.10
2017,05,27,02,18,13.10
2017,05,27,02,19,13.10
2017,05,27,02,20,13.10
2017,05,27,02,21,13.10
2017,05,27,02,22,13.10
2017,05,27,02,23,13.10
2017,05,27,02,24,13.10
2017,05,27,02,25,13.10
2017,05,27,02,26,13.10
2017,05,27,02,27,13.10
2017,05,27,02,28,13.10
2017,05,27,02,29,13.10
2017,05,27,02,30,13.10
2017,05,27,02,31,13.10
2017,05,27,02,32,13.00
2017,05,27,02,33,13.00
2017,05,27,02,34,13.00
2017,05,27,02,35,12.90
2017,05,27,02,36,12.90
2017,05,27,02,37,12.90
2017,05,27,02,38,12.80
2017,05,27,02,39,12.80
2017,05,27,02,40,12.80
2017,05,27,02,41,12.70
2017,05,27,02,42,12.70
2017,05,27,02,43,12.70
2017,05,27,02,44,12.70
2017,05,27,02,45,12.60
2017,05,27,02,46,12.60
2017,05,27,02,47,12.60
2017,05,27,02,48,12.60
2017,05,27,02,49,12.60
2017,05,27,02,50,12.60
2017,05,27,02,51,12.60
2017,05,27,02,52,12.70
2017,05,27,02,53,12.70
2017,05,27,02,54,12.70
2017,05,27,02,55,12.70
2017,05,27,02,56,12.80
2017,05,27,02,57,12.80
2017,05,27,02,58,12.80
2017,05,27,02,59,12.80
2017,05,27,03,00,12.80
2017,05,27,03,01,12.80
2017,05,27,03,02,12.80
2017,05,27,03,03,12.80
2017,05,27,03,04,12.80
2017,05,27,03,05,12.80
2017,05,27,03,06,12.80
2017,05,27,03,07,12.80
2017,05,27,03,08,12.80
2017,05,27,03,09,12.80
2017,05,27,03,10,12.80
2017,05,27,03,11,12.80
2017,05,27,03,12,12.80
2017,05,27,03,13,12.80
2017,05,27,03,14,12.80
2017,05,27,03,15,12.80
2017,05,27,03,16,12.90
2017,05,27,03,17,12.90
2017,05,27,03,18,13.00
2017,05,27,03,19,13.00
2017,05,27,03,20,13.00
2017,05,27,03,21,12.90
2017,05,27,03,22,12.90
2017,05,27,03,23,12.90
2017,05,27,03,24,12.90
2017,05,27,03,25,12.90
2017,05,27,03,26,13.00
2017,05,27,03,27,12.90
2017,05,27,03,28,13.00
2017,05,27,03,29,13.00
2017,05,27,03,30,13.00
2017,05,27,03,31,13.00
2017,05,27,03,32,12.90
2017,05,27,03,33,12.90
2017,05,27,03,34,12.90
2017,05,27,03,35,12.90
2017,05,27,03,36,12.80
2017,05,27,03,37,12.80
2017,05,27,03,38,12.80
2017,05,27,03,39,12.80
2017,05,27,03,40,12.80
2017,05,27,03,41,12.70
2017,05,27,03,42,12.70
2017,05,27,03,43,12.70
2017,05,27,03,44,12.70
2017,05,27,03,45,12.70
2017,05,27,03,46,12.70
2017,05,27,03,47,12.70
2017,05,27,03,48,12.80
2017,05,27,03,49,12.80
2017,05,27,03,50,12.80
2017,05,27,03,51,12.80
2017,05,27,03,52,12.90
2017,05,27,03,53,12.90
2017,05,27,03,54,12.90
2017,05,27,03,55,12.90
2017,05,27,03,56,12.90
2017,05,27,03,57,12.90
2017,05,27,03,58,12.90
2017,05,27,03,59,12.90
2017,05,27,04,00,12.90
2017,05,27,04,01,12.90
2017,05,27,04,02,13.00
2017,05,27,04,03,13.00
2017,05,27,04,04,13.00
2017,05,27,04,05,13.00
2017,05,27,04,06,13.00
2017,05,27,04,07,13.00
2017,05,27,04,08,12.90
2017,05,27,04,09,12.90
2017,05,27,04,10,12.90
2017,05,27,04,11,12.80
2017,05,27,04,12,12.80
2017,05,27,04,13,12.80
2017,05,27,04,14,12.80
2017,05,27,04,15,12.90
2017,05,27,04,16,12.80
2017,05,27,04,17,12.80
2017,05,27,04,18,12.80
2017,05,27,04,19,12.80
2017,05,27,04,20,12.70
2017,05,27,04,21,12.70
2017,05,27,04,22,12.70
2017,05,27,04,23,12.70
2017,05,27,04,24,12.60
2017,05,27,04,25,12.60
2017,05,27,04,26,12.60
2017,05,27,04,27,12.60
2017,05,27,04,28,12.50
2017,05,27,04,29,12.50
2017,05,27,04,30,12.40
2017,05,27,04,31,12.40
2017,05,27,04,32,12.40
2017,05,27,04,33,12.40
2017,05,27,04,34,12.40
2017,05,27,04,35,12.40
2017,05,27,04,36,12.40
2017,05,27,04,37,12.40
2017,05,27,04,38,12.30
2017,05,27,04,39,12.30
2017,05,27,04,40,12.30
2017,05,27,04,41,12.30
2017,05,27,04,42,12.30
2017,05,27,04,43,12.30
2017,05,27,04,44,12.30
2017,05,27,04,45,12.30
2017,05,27,04,46,12.40
2017,05,27,04,47,12.40
2017,05,27,04,48,12.30
2017,05,27,04,49,12.30
2017,05,27,04,50,12.30
2017,05,27,04,51,12.40
2017,05,27,04,52,12.40
2017,05,27,04,53,12.40
2017,05,27,04,54,12.50
2017,05,27,04,55,12.50
2017,05,27,04,56,12.50
2017,05,27,04,57,12.50
2017,05,27,04,58,12.60
2017,05,27,04,59,12.60
2017,05,27,05,00,12.60
2017,05,27,05,01,12.60
2017,05,27,05,02,12.60
2017,05,27,05,03,12.60
2017,05,27,05,04,12.60
2017,05,27,05,05,12.60
2017,05,27,05,06,12.50
2017,05,27,05,07,12.50
2017,05,27,05,08,12.40
2017,05,27,05,09,12.40
2017,05,27,05,10,12.30
2017,05,27,05,11,12.30
2017,05,27,05,12,12.20
2017,05,27,05,13,12.20
2017,05,27,05,14,12.20
2017,05,27,05,15,12.20
2017,05,27,05,16,12.20
2017,05,27,05,17,12.20
2017,05,27,05,18,12.20
2017,05,27,05,19,12.20
2017,05,27,05,20,12.20
2017,05,27,05,21,12.20
2017,05,27,05,22,12.20
2017,05,27,05,23,12.20
2017,05,27,05,24,12.20
2017,05,27,05,25,12.20
2017,05,27,05,26,12.20
2017,05,27,05,27,12.20
2017,05,27,05,28,12.30
2017,05,27,05,29,12.30
2017,05,27,05,30,12.30
2017,05,27,05,31,12.30
2017,05,27,05,32,12.30
2017,05,27,05,33,12.30
2017,05,27,05,34,12.30
2017,05,27,05,35,12.30
2017,05,27,05,36,12.30
2017,05,27,05,37,12.30
2017,05,27,05,38,12.30
2017,05,27,05,39,12.30
2017,05,27,05,40,12.30
2017,05,27,05,41,12.30
2017,05,27,05,42,12.40
2017,05,27,05,43,12.40
2017,05,27,05,44,12.50
2017,05,27,05,45,12.50
2017,05,27,05,46,12.50
2017,05,27,05,47,12.60
2017,05,27,05,48,12.60
2017,05,27,05,49,12.60
2017,05,27,05,50,12.60
2017,05,27,05,51,12.60
2017,05,27,05,52,12.60
2017,05,27,05,53,12.60
2017,05,27,05,54,12.60
2017,05,27,05,55,12.60
2017,05,27,05,56,12.60
2017,05,27,05,57,12.60
2017,05,27,05,58,12.60
2017,05,27,05,59,12.60
2017,05,27,06,00,12.60
2017,05,27,06,01,12.60
2017,05,27,06,02,12.60
2017,05,27,06,03,12.60
2017,05,27,06,04,12.60
2017,05,27,06,05,12.60
2017,05,27,06,06,12.60
2017,05,27,06,07,12.70
2017,05,27,06,08,12.70
2017,05,27,06,09,12.70
2017,05,27,06,10,12.70
2017,05,27,06,11,12.70
2017,05,27,06,12,12.70
2017,05,27,06,13,12.80
2017,05,27,06,14,12.90
2017,05,27,06,15,12.90
2017,05,27,06,16,13.00
2017,05,27,06,17,13.00
2017,05,27,06,18,13.10
2017,05,27,06,19,13.10
2017,05,27,06,20,13.20
2017,05,27,06,21,13.20
2017,05,27,06,22,13.30
2017,05,27,06,23,13.30
2017,05,27,06,24,13.30
2017,05,27,06,25,13.40
2017,05,27,06,26,13.40
2017,05,27,06,27,13.40
2017,05,27,06,28,13.50
2017,05,27,06,29,13.50
2017,05,27,06,30,13.60
2017,05,27,06,31,13.60
2017,05,27,06,32,13.60
2017,05,27,06,33,13.70
2017,05,27,06,34,13.70
2017,05,27,06,35,13.70
2017,05,27,06,36,13.70
2017,05,27,06,37,13.70
2017,05,27,06,38,13.70
2017,05,27,06,39,13.80
2017,05,27,06,40,13.80
2017,05,27,06,41,13.90
2017,05,27,06,42,14.00
2017,05,27,06,43,14.10
2017,05,27,06,44,14.20
2017,05,27,06,45,14.30
2017,05,27,06,46,14.30
2017,05,27,06,47,14.30
2017,05,27,06,48,14.40
2017,05,27,06,49,14.40
2017,05,27,06,50,14.40
2017,05,27,06,51,14.40
2017,05,27,06,52,14.50
2017,05,27,06,53,14.50
2017,05,27,06,54,14.60
2017,05,27,06,55,14.70
2017,05,27,06,56,14.70
2017,05,27,06,57,14.70
2017,05,27,06,58,14.80
2017,05,27,06,59,14.90
2017,05,27,07,00,14.90
2017,05,27,07,01,15.00
2017,05,27,07,02,15.10
2017,05,27,07,03,15.20
2017,05,27,07,04,15.40
2017,05,27,07,05,15.50
2017,05,27,07,06,15.70
2017,05,27,07,07,15.80
2017,05,27,07,08,16.00
2017,05,27,07,09,16.10
2017,05,27,07,10,16.30
2017,05,27,07,11,16.40
2017,05,27,07,12,16.60
2017,05,27,07,13,16.70
2017,05,27,07,14,16.70
2017,05,27,07,15,16.80
2017,05,27,07,16,16.80
2017,05,27,07,17,16.80
2017,05,27,07,18,16.90
2017,05,27,07,19,16.90
2017,05,27,07,20,17.00
2017,05,27,07,21,17.00
2017,05,27,07,22,17.00
2017,05,27,07,23,17.10
2017,05,27,07,24,17.10
2017,05,27,07,25,17.10
2017,05,27,07,26,17.20
2017,05,27,07,27,17.20
2017,05,27,07,28,17.20
2017,05,27,07,29,17.20
2017,05,27,07,30,17.20
2017,05,27,07,31,17.10
2017,05,27,07,32,17.10
2017,05,27,07,33,17.10
2017,05,27,07,34,17.20
2017,05,27,07,35,17.20
2017,05,27,07,36,17.20
2017,05,27,07,37,17.20
2017,05,27,07,38,17.30
2017,05,27,07,39,17.30
2017,05,27,07,40,17.40
2017,05,27,07,41,17.50
2017,05,27,07,42,17.60
2017,05,27,07,43,17.60
2017,05,27,07,44,17.50
2017,05,27,07,45,17.40
2017,05,27,07,46,17.30
2017,05,27,07,47,17.20
2017,05,27,07,48,17.30
2017,05,27,07,49,17.30
2017,05,27,07,50,17.30
2017,05,27,07,51,17.40
2017,05,27,07,52,17.40
2017,05,27,07,53,17.50
2017,05,27,07,54,17.70
2017,05,27,07,55,17.80
2017,05,27,07,56,17.90
2017,05,27,07,57,18.10
2017,05,27,07,58,18.20
2017,05,27,07,59,18.30
2017,05,27,08,00,18.30
2017,05,27,08,01,18.20
2017,05,27,08,02,18.20
2017,05,27,08,03,18.10
2017,05,27,08,04,18.00
2017,05,27,08,05,17.90
2017,05,27,08,06,17.90
2017,05,27,08,07,17.90
2017,05,27,08,08,17.90
2017,05,27,08,09,17.90
2017,05,27,08,10,18.00
2017,05,27,08,11,18.00
2017,05,27,08,12,17.90
2017,05,27,08,13,17.90
2017,05,27,08,14,17.90
2017,05,27,08,15,17.90
2017,05,27,08,16,18.00
2017,05,27,08,17,18.00
2017,05,27,08,18,18.10
2017,05,27,08,19,18.00
2017,05,27,08,20,18.00
2017,05,27,08,21,18.00
2017,05,27,08,22,18.00
2017,05,27,08,23,18.00
2017,05,27,08,24,18.00
2017,05,27,08,25,18.00
2017,05,27,08,26,18.10
2017,05,27,08,27,18.10
2017,05,27,08,28,18.10
2017,05,27,08,29,18.10
2017,05,27,08,30,18.10
2017,05,27,08,31,18.10
2017,05,27,08,32,18.10
2017,05,27,08,33,18.10
2017,05,27,08,34,18.10
2017,05,27,08,35,18.20
2017,05,27,08,36,18.20
2017,05,27,08,37,18.30
2017,05,27,08,38,18.40
2017,05,27,08,39,18.40
2017,05,27,08,40,18.50
2017,05,27,08,41,18.40
2017,05,27,08,42,18.40
2017,05,27,08,43,18.30
2017,05,27,08,44,18.30
2017,05,27,08,45,18.20
2017,05,27,08,46,18.20
2017,05,27,08,47,18.30
2017,05,27,08,48,18.40
2017,05,27,08,49,18.50
2017,05,27,08,50,18.60
2017,05,27,08,51,18.60
2017,05,27,08,52,18.60
2017,05,27,08,53,18.50
2017,05,27,08,54,18.50
2017,05,27,08,55,18.50
2017,05,27,08,56,18.70
2017,05,27,08,57,18.70
2017,05,27,08,58,18.70
2017,05,27,08,59,18.70
2017,05,27,09,00,18.70
2017,05,27,09,01,18.70
2017,05,27,09,02,18.70
2017,05,27,09,03,18.70
2017,05,27,09,04,18.80
2017,05,27,09,05,18.90
2017,05,27,09,06,18.90
2017,05,27,09,07,19.00
2017,05,27,09,08,19.10
2017,05,27,09,09,19.10
2017,05,27,09,10,19.20
2017,05,27,09,11,19.20
2017,05,27,09,12,19.10
2017,05,27,09,13,19.10
2017,05,27,09,14,19.20
2017,05,27,09,15,19.20
2017,05,27,09,16,19.20
2017,05,27,09,17,19.20
2017,05,27,09,18,19.10
2017,05,27,09,19,19.10
2017,05,27,09,20,19.10
2017,05,27,09,21,19.10
2017,05,27,09,22,19.10
2017,05,27,09,23,19.10
2017,05,27,09,24,19.00
2017,05,27,09,25,18.90
2017,05,27,09,26,18.80
2017,05,27,09,27,18.70
2017,05,27,09,28,18.60
2017,05,27,09,29,18.70
2017,05,27,09,30,18.70
2017,05,27,09,31,18.70
2017,05,27,09,32,18.80
2017,05,27,09,33,18.80
2017,05,27,09,34,18.80
2017,05,27,09,35,18.70
2017,05,27,09,36,18.70
2017,05,27,09,37,18.60
2017,05,27,09,38,18.50
2017,05,27,09,39,18.50
2017,05,27,09,40,18.50
2017,05,27,09,41,18.60
2017,05,27,09,42,18.70
2017,05,27,09,43,18.80
2017,05,27,09,44,19.00
2017,05,27,09,45,19.20
2017,05,27,09,46,19.30
2017,05,27,09,47,19.40
2017,05,27,09,48,19.60
2017,05,27,09,49,19.60
2017,05,27,09,50,19.60
2017,05,27,09,51,19.40
2017,05,27,09,52,19.40
2017,05,27,09,53,19.40
2017,05,27,09,54,19.50
2017,05,27,09,55,19.50
2017,05,27,09,56,19.60
2017,05,27,09,57,19.60
2017,05,27,09,58,19.70
2017,05,27,09,59,19.70
2017,05,27,10,00,19.70
2017,05,27,10,01,19.70
2017,05,27,10,02,19.60
2017,05,27,10,03,19.50
2017,05,27,10,04,19.50
2017,05,27,10,05,19.40
2017,05,27,10,06,19.50
2017,05,27,10,07,19.50
2017,05,27,10,08,19.50
2017,05,27,10,09,19.60
2017,05,27,10,10,19.60
2017,05,27,10,11,19.60
2017,05,27,10,12,19.60
2017,05,27,10,13,19.60
2017,05,27,10,14,19.70
2017,05,27,10,15,19.70
2017,05,27,10,16,19.80
2017,05,27,10,17,19.80
2017,05,27,10,18,19.70
2017,05,27,10,19,19.60
2017,05,27,10,20,19.50
2017,05,27,10,21,19.50
2017,05,27,10,22,19.60
2017,05,27,10,23,19.70
2017,05,27,10,24,19.80
2017,05,27,10,25,19.80
2017,05,27,10,26,19.70
2017,05,27,10,27,19.60
2017,05,27,10,28,19.60
2017,05,27,10,29,19.60
2017,05,27,10,30,19.70
2017,05,27,10,31,19.80
2017,05,27,10,32,19.80
2017,05,27,10,33,19.80
2017,05,27,10,34,19.80
2017,05,27,10,35,19.80
2017,05,27,10,36,19.80
2017,05,27,10,37,19.80
2017,05,27,10,38,19.80
2017,05,27,10,39,19.80
2017,05,27,10,40,19.70
2017,05,27,10,41,19.80
2017,05,27,10,42,19.90
2017,05,27,10,43,19.90
2017,05,27,10,44,19.90
2017,05,27,10,45,20.00
2017,05,27,10,46,20.10
2017,05,27,10,47,20.10
2017,05,27,10,48,20.00
2017,05,27,10,49,20.00
2017,05,27,10,50,19.90
2017,05,27,10,51,19.90
2017,05,27,10,52,20.00
2017,05,27,10,53,20.10
2017,05,27,10,54,20.20
2017,05,27,10,55,20.20
2017,05,27,10,56,20.30
2017,05,27,10,57,20.40
2017,05,27,10,58,20.40
2017,05,27,10,59,20.40
2017,05,27,11,00,20.30
2017,05,27,11,01,20.30
2017,05,27,11,02,20.30
2017,05,27,11,03,20.30
2017,05,27,11,04,20.40
2017,05,27,11,05,20.60
2017,05,27,11,06,20.70
2017,05,27,11,07,20.80
2017,05,27,11,08,20.80
2017,05,27,11,09,20.90
2017,05,27,11,10,21.00
2017,05,27,11,11,21.10
2017,05,27,11,12,21.20
2017,05,27,11,13,21.30
2017,05,27,11,14,21.20
2017,05,27,11,15,21.20
2017,05,27,11,16,21.10
2017,05,27,11,17,21.00
2017,05,27,11,18,20.80
2017,05,27,11,19,20.80
2017,05,27,11,20,20.80
2017,05,27,11,21,20.80
2017,05,27,11,22,20.70
2017,05,27,11,23,20.70
2017,05,27,11,24,20.80
2017,05,27,11,25,20.80
2017,05,27,11,26,20.80
2017,05,27,11,27,20.90
2017,05,27,11,28,20.90
2017,05,27,11,29,20.90
2017,05,27,11,30,20.90
2017,05,27,11,31,20.80
2017,05,27,11,32,20.70
2017,05,27,11,33,20.70
2017,05,27,11,34,20.70
2017,05,27,11,35,20.80
2017,05,27,11,36,20.80
2017,05,27,11,37,20.80
2017,05,27,11,38,20.80
2017,05,27,11,39,20.80
2017,05,27,11,40,20.90
2017,05,27,11,41,20.90
2017,05,27,11,42,20.90
2017,05,27,11,43,20.90
2017,05,27,11,44,20.90
2017,05,27,11,45,20.90
2017,05,27,11,46,20.90
2017,05,27,11,47,20.80
2017,05,27,11,48,20.80
2017,05,27,11,49,20.80
2017,05,27,11,50,21.00
2017,05,27,11,51,21.10
2017,05,27,11,52,21.40
2017,05,27,11,53,21.40
2017,05,27,11,54,21.40
2017,05,27,11,55,21.30
2017,05,27,11,56,21.20
2017,05,27,11,57,21.10
2017,05,27,11,58,21.10
2017,05,27,11,59,21.30
2017,05,27,12,00,21.40
2017,05,27,12,01,21.40
2017,05,27,12,02,21.40
2017,05,27,12,03,21.30
2017,05,27,12,04,21.20
2017,05,27,12,05,21.30
2017,05,27,12,06,21.30
2017,05,27,12,07,21.40
2017,05,27,12,08,21.40
2017,05,27,12,09,21.40
2017,05,27,12,10,21.50
2017,05,27,12,11,21.50
2017,05,27,12,12,21.40
2017,05,27,12,13,21.30
2017,05,27,12,14,21.30
2017,05,27,12,15,21.40
2017,05,27,12,16,21.50
2017,05,27,12,17,21.40
2017,05,27,12,18,21.40
2017,05,27,12,19,21.40
2017,05,27,12,20,21.30
2017,05,27,12,21,21.30
2017,05,27,12,22,21.20
2017,05,27,12,23,21.20
2017,05,27,12,24,21.30
2017,05,27,12,25,21.30
2017,05,27,12,26,21.40
2017,05,27,12,27,21.60
2017,05,27,12,28,21.60
2017,05,27,12,29,21.70
2017,05,27,12,30,21.80
2017,05,27,12,31,21.80
2017,05,27,12,32,21.90
2017,05,27,12,33,22.00
2017,05,27,12,34,22.10
2017,05,27,12,35,22.20
2017,05,27,12,36,22.30
2017,05,27,12,37,22.50
2017,05,27,12,38,22.50
2017,05,27,12,39,22.40
2017,05,27,12,40,22.40
2017,05,27,12,41,22.50
2017,05,27,12,42,22.50
2017,05,27,12,43,22.60
2017,05,27,12,44,22.70
2017,05,27,12,45,22.70
2017,05,27,12,46,22.60
2017,05,27,12,47,22.60
2017,05,27,12,48,22.60
2017,05,27,12,49,22.70
2017,05,27,12,50,22.70
2017,05,27,12,51,22.70
2017,05,27,12,52,22.70
2017,05,27,12,53,22.80
2017,05,27,12,54,22.80
2017,05,27,12,55,22.80
2017,05,27,12,56,22.80
2017,05,27,12,57,22.80
2017,05,27,12,58,22.90
2017,05,27,12,59,23.00
2017,05,27,13,00,23.00
2017,05,27,13,01,22.80
2017,05,27,13,02,22.60
2017,05,27,13,03,22.60
2017,05,27,13,04,22.60
2017,05,27,13,05,22.50
2017,05,27,13,06,22.50
2017,05,27,13,07,22.60
2017,05,27,13,08,22.70
2017,05,27,13,09,22.70
2017,05,27,13,10,22.70
2017,05,27,13,11,22.60
2017,05,27,13,12,22.50
2017,05,27,13,13,22.50
2017,05,27,13,14,22.40
2017,05,27,13,15,22.30
2017,05,27,13,16,22.20
2017,05,27,13,17,22.30
2017,05,27,13,18,22.40
2017,05,27,13,19,22.50
2017,05,27,13,20,22.50
2017,05,27,13,21,22.50
2017,05,27,13,22,22.50
2017,05,27,13,23,22.50
2017,05,27,13,24,22.50
2017,05,27,13,25,22.60
2017,05,27,13,26,22.60
2017,05,27,13,27,22.60
2017,05,27,13,28,22.60
2017,05,27,13,29,22.50
2017,05,27,13,30,22.50
2017,05,27,13,31,22.60
2017,05,27,13,32,22.60
2017,05,27,13,33,22.60
2017,05,27,13,34,22.60
2017,05,27,13,35,22.60
2017,05,27,13,36,22.60
2017,05,27,13,37,22.60
2017,05,27,13,38,22.60
2017,05,27,13,39,22.70
2017,05,27,13,40,22.70
2017,05,27,13,41,22.80
2017,05,27,13,42,22.80
2017,05,27,13,43,22.90
2017,05,27,13,44,23.00
2017,05,27,13,45,23.00
2017,05,27,13,46,23.00
2017,05,27,13,47,23.10
2017,05,27,13,48,23.10
2017,05,27,13,49,23.20
2017,05,27,13,50,23.30
2017,05,27,13,51,23.40
2017,05,27,13,52,23.30
2017,05,27,13,53,23.30
2017,05,27,13,54,23.30
2017,05,27,13,55,23.30
2017,05,27,13,56,23.40
2017,05,27,13,57,23.50
2017,05,27,13,58,23.50
2017,05,27,13,59,23.40
2017,05,27,14,00,23.40
2017,05,27,14,01,23.40
2017,05,27,14,02,23.30
2017,05,27,14,03,23.20
2017,05,27,14,04,23.20
2017,05,27,14,05,23.30
2017,05,27,14,06,23.30
2017,05,27,14,07,23.30
2017,05,27,14,08,23.30
2017,05,27,14,09,23.30
2017,05,27,14,10,23.30
2017,05,27,14,11,23.30
2017,05,27,14,12,23.40
2017,05,27,14,13,23.50
2017,05,27,14,14,23.50
2017,05,27,14,15,23.60
2017,05,27,14,16,23.70
2017,05,27,14,17,23.70
2017,05,27,14,18,23.70
2017,05,27,14,19,23.70
2017,05,27,14,20,23.80
2017,05,27,14,21,23.90
2017,05,27,14,22,23.90
2017,05,27,14,23,23.90
2017,05,27,14,24,23.90
2017,05,27,14,25,23.80
2017,05,27,14,26,23.60
2017,05,27,14,27,23.50
2017,05,27,14,28,23.50
2017,05,27,14,29,23.40
2017,05,27,14,30,23.50
2017,05,27,14,31,23.60
2017,05,27,14,32,23.70
2017,05,27,14,33,23.70
2017,05,27,14,34,23.70
2017,05,27,14,35,23.80
2017,05,27,14,36,23.80
2017,05,27,14,37,23.80
2017,05,27,14,38,23.90
2017,05,27,14,39,24.00
2017,05,27,14,40,24.10
2017,05,27,14,41,24.10
2017,05,27,14,42,23.90
2017,05,27,14,43,23.80
2017,05,27,14,44,23.80
2017,05,27,14,45,23.90
2017,05,27,14,46,23.90
2017,05,27,14,47,23.90
2017,05,27,14,48,23.90
2017,05,27,14,49,23.90
2017,05,27,14,50,23.80
2017,05,27,14,51,23.90
2017,05,27,14,52,24.10
2017,05,27,14,53,24.20
2017,05,27,14,54,24.20
2017,05,27,14,55,24.00
2017,05,27,14,56,23.90
2017,05,27,14,57,23.90
2017,05,27,14,58,23.80
2017,05,27,14,59,23.80
2017,05,27,15,00,23.80
2017,05,27,15,01,23.80
2017,05,27,15,02,23.80
2017,05,27,15,03,23.80
2017,05,27,15,04,23.80
2017,05,27,15,05,23.90
2017,05,27,15,06,23.90
2017,05,27,15,07,24.00
2017,05,27,15,08,24.00
2017,05,27,15,09,24.00
2017,05,27,15,10,24.00
2017,05,27,15,11,24.00
2017,05,27,15,12,24.00
2017,05,27,15,13,24.10
2017,05,27,15,14,24.10
2017,05,27,15,15,24.10
2017,05,27,15,16,24.20
2017,05,27,15,17,24.20
2017,05,27,15,18,24.20
2017,05,27,15,19,24.20
2017,05,27,15,20,24.10
2017,05,27,15,21,24.20
2017,05,27,15,22,24.20
2017,05,27,15,23,24.20
2017,05,27,15,24,24.30
2017,05,27,15,25,24.40
2017,05,27,15,26,24.40
2017,05,27,15,27,24.40
2017,05,27,15,28,24.40
2017,05,27,15,29,24.40
2017,05,27,15,30,24.50
2017,05,27,15,31,24.50
2017,05,27,15,32,24.40
2017,05,27,15,33,24.30
2017,05,27,15,34,24.30
2017,05,27,15,35,24.30
2017,05,27,15,36,24.30
2017,05,27,15,37,24.30
2017,05,27,15,38,24.30
2017,05,27,15,39,24.40
2017,05,27,15,40,24.50
2017,05,27,15,41,24.60
2017,05,27,15,42,24.70
2017,05,27,15,43,24.70
2017,05,27,15,44,24.80
2017,05,27,15,45,24.70
2017,05,27,15,46,24.60
2017,05,27,15,47,24.60
2017,05,27,15,48,24.60
2017,05,27,15,49,24.60
2017,05,27,15,50,24.60
2017,05,27,15,51,24.70
2017,05,27,15,52,24.70
2017,05,27,15,53,24.80
2017,05,27,15,54,24.70
2017,05,27,15,55,24.60
2017,05,27,15,56,24.60
2017,05,27,15,57,24.60
2017,05,27,15,58,24.60
2017,05,27,15,59,24.60
2017,05,27,16,00,24.50
2017,05,27,16,01,24.60
2017,05,27,16,02,24.70
2017,05,27,16,03,24.80
2017,05,27,16,04,24.80
2017,05,27,16,05,24.90
2017,05,27,16,06,24.90
2017,05,27,16,07,24.90
2017,05,27,16,08,24.90
2017,05,27,16,09,25.00
2017,05,27,16,10,25.00
2017,05,27,16,11,25.00
2017,05,27,16,12,25.00
2017,05,27,16,13,25.00
2017,05,27,16,14,25.00
2017,05,27,16,15,24.90
2017,05,27,16,16,24.80
2017,05,27,16,17,24.80
2017,05,27,16,18,24.70
2017,05,27,16,19,24.70
2017,05,27,16,20,24.70
2017,05,27,16,21,24.80
2017,05,27,16,22,24.90
2017,05,27,16,23,24.90
2017,05,27,16,24,24.90
2017,05,27,16,25,25.00
2017,05,27,16,26,25.00
2017,05,27,16,27,25.00
2017,05,27,16,28,24.90
2017,05,27,16,29,24.90
2017,05,27,16,30,24.90
2017,05,27,16,31,25.00
2017,05,27,16,32,25.00
2017,05,27,16,33,25.00
2017,05,27,16,34,25.00
2017,05,27,16,35,25.00
2017,05,27,16,36,24.90
2017,05,27,16,37,25.00
2017,05,27,16,38,25.10
2017,05,27,16,39,25.10
2017,05,27,16,40,25.10
2017,05,27,16,41,25.10
2017,05,27,16,42,25.00
2017,05,27,16,43,24.90
2017,05,27,16,44,24.90
2017,05,27,16,45,24.90
2017,05,27,16,46,24.80
2017,05,27,16,47,24.90
2017,05,27,16,48,24.90
2017,05,27,16,49,24.90
2017,05,27,16,50,24.90
2017,05,27,16,51,24.90
2017,05,27,16,52,24.90
2017,05,27,16,53,24.90
2017,05,27,16,54,25.00
2017,05,27,16,55,25.10
2017,05,27,16,56,25.10
2017,05,27,16,57,25.20
2017,05,27,16,58,25.30
2017,05,27,16,59,25.20
2017,05,27,17,00,25.20
2017,05,27,17,01,25.10
2017,05,27,17,02,25.10
2017,05,27,17,03,25.10
2017,05,27,17,04,25.10
2017,05,27,17,05,25.20
2017,05,27,17,06,25.20
2017,05,27,17,07,25.20
2017,05,27,17,08,25.20
2017,05,27,17,09,25.30
2017,05,27,17,10,25.40
2017,05,27,17,11,25.40
2017,05,27,17,12,25.50
2017,05,27,17,13,25.60
2017,05,27,17,14,25.60
2017,05,27,17,15,25.50
2017,05,27,17,16,25.50
2017,05,27,17,17,25.50
2017,05,27,17,18,25.50
2017,05,27,17,19,25.40